+ View the NASA Portal
+ Center for Near-Earth Object Studies
IMPORTANT:
The SSD Announcement email list is now available. Major changes are coming in the near future, including possible hostname and/or URL changes. To be notified of such changes, subscribe to this email list.
Please visit
this page
for more details.
Don't show this message again
JPL Small-Body Database Browser
Search:
[
help
]
214262 (2005 GB14)
Classification:
Main-belt Asteroid
SPK-ID:
2214262
[
Ephemeris
|
Orbit Diagram
|
Orbital Elements
|
Mission Design
|
Physical Parameters
|
Discovery Circumstances
]
[ show orbit diagram ]
Orbital Elements at Epoch 2458600.5 (2019-Apr-27.0) TDB
Reference:
JPL 11
(heliocentric ecliptic J2000)
Element
Value
Uncertainty (1-sigma)
Units
e
.2205061660170344
5.0484e-08
a
2.365257995022505
1.7646e-08
au
q
1.843704022898955
1.1875e-07
au
i
4.94019749443531
6.4751e-06
deg
node
166.9078798710788
7.0371e-05
deg
peri
113.3124462181672
7.2094e-05
deg
M
226.0890576916501
1.8689e-05
deg
t
p
2459094.730759270690
(2020-Sep-02.23075927)
7.2138e-05
TDB
period
1328.667174395309
3.64
1.4868e-05
4.071e-08
d
yr
n
.2709482155783972
3.032e-09
deg/d
Q
2.886811967146055
2.1537e-08
au
Orbit Determination Parameters
# obs. used (total)
199
data-arc span
8541 days (23.38 yr)
first obs. used
1995-09-17
last obs. used
2019-02-04
planetary ephem.
DE431
SB-pert. ephem.
SB431-N16
condition code
0
norm. resid. RMS
.58836
source
ORB
producer
Otto Matic
solution date
2019-Jul-14 03:27:22
Additional Information
Earth MOID
= .833659 au
Jupiter MOID
= 2.27574 au
T_jup
= 3.510
[ show covariance matrix ]
[
Ephemeris
|
Orbit Diagram
|
Orbital Elements
|
Mission Design
|
Physical Parameters
|
Discovery Circumstances
]
Physical Parameter Table
Parameter
Symbol
Value
Units
Sigma
Reference
Notes
absolute magnitude
H
17.2
n/a
MPO427260
214262 (2005 GB14)
Discovered 2005-Apr-02 by Spacewatch at Kitt Peak
Reference:
20090509/Numbers.arc
Last Updated:
2009-05-11
[
Ephemeris
|
Orbit Diagram
|
Orbital Elements
|
Mission Design
|
Physical Parameters
|
Discovery Circumstances
]
2019-Dec-10 02:51 UT
(server date/time)
Site Manager:
Ryan S. Park
Webmaster
:
Alan B. Chamberlin